This is the latest recevied weather packets stored in our database for station/object KC2TER. If no packets are shown the sender has not sent any weather packets the latest 10 day(s).
| Time | Temp. | Humidity | Pressure | Rain* | Wind** | Luminosity | Snow |
|---|---|---|---|---|---|---|---|
| 1777769161 | 11.11° C | 79% | 1010.2 hPa | 0 mm | - | 0 W/m² | - |
| 1777768860 | 11.11° C | 79% | 1010.5 hPa | 0 mm | - | 0 W/m² | - |
| 1777768556 | 11.11° C | 78% | 1010.2 hPa | 0 mm | - | 0 W/m² | - |
| 1777768253 | 11.67° C | 78% | 1010.3 hPa | 0 mm | - | 0 W/m² | - |
| 1777767950 | 11.67° C | 78% | 1010.4 hPa | 0 mm | - | 0 W/m² | - |
| 1777767647 | 11.67° C | 77% | 1010.4 hPa | 0 mm | - | 0 W/m² | - |
| 1777767343 | 11.67° C | 77% | 1010.5 hPa | 0 mm | - | 0 W/m² | - |
| 1777767041 | 11.67° C | 77% | 1010.3 hPa | 0 mm | - | 0 W/m² | - |
| 1777766738 | 11.67° C | 77% | 1010.3 hPa | 0 mm | - | 0 W/m² | - |
| 1777766435 | 11.67° C | 76% | 1010.1 hPa | 0 mm | - | 0 W/m² | - |
| 1777766131 | 11.67° C | 76% | 1010.3 hPa | 0 mm | - | 0 W/m² | - |
| 1777765830 | 12.22° C | 75% | 1010.2 hPa | 0 mm | - | 2 W/m² | - |
| 1777765525 | 12.22° C | 73% | 1010.4 hPa | 0 mm | - | 2 W/m² | - |
| 1777765224 | 12.22° C | 72% | 1010.2 hPa | 0 mm | - | 4 W/m² | - |
| 1777764924 | 12.78° C | 71% | 1010.4 hPa | 0 mm | - | 6 W/m² | - |
| 1777764621 | 12.78° C | 69% | 1010.2 hPa | 0 mm | - | 10 W/m² | - |
| 1777764317 | 12.78° C | 68% | 1010.2 hPa | 0 mm | - | 14 W/m² | - |
| 1777764014 | 13.33° C | 67% | 1010.4 hPa | 0 mm | - | 17 W/m² | - |
| 1777763711 | 13.33° C | 68% | 1010.4 hPa | 0 mm | - | 24 W/m² | - |
| 1777763409 | 13.33° C | 67% | 1010.4 hPa | 0 mm | - | 26 W/m² | - |
| 1777763107 | 13.33° C | 67% | 1010.1 hPa | 0 mm | - | 29 W/m² | - |
| 1777762805 | 13.89° C | 66% | 1010.3 hPa | 0 mm | - | 43 W/m² | - |
| 1777762500 | 13.89° C | 65% | 1010.1 hPa | 0 mm | - | 46 W/m² | - |
| 1777762198 | 13.89° C | 66% | 1010.2 hPa | 0 mm | - | 46 W/m² | - |
| 1777761894 | 13.89° C | 66% | 1010.1 hPa | 0 mm | - | 41 W/m² | - |
* Rain latest hour (hover to see other rain measurements)
** Current wind speed in m/s (hover to see current wind gust speed)